sat.trackr.live / text

‹ back to catalog

STARLINK-11496 [DTC]

NORAD 62267 · 2024-237A

PAYLOAD ACTIVE UNKNOWN

§ Identity

Operator
Country
US
Launch date
2024-12-08
Launch site
AFETR
Launch vehicle
Mass (kg)
RCS (m²)

Purposes: comms

External: N2YO · Heavens-Above · Gunter

§ Orbital elements

Epoch: 2026-09-21T10:21:24.716448Z

Period
91.67 min
Inclination
43.0021°
Eccentricity
0.0002163
Mean motion
15.70883019 rev/d
Perigee alt
354.9 km
Apogee alt
357.8 km
Semi-major
6,734.5 km
B*
7.4072e-4
RAAN
317.0810°
Arg perigee
260.9102°
Mean anomaly
99.1521°
Rev number
10,383

§ Raw data

STARLINK-11496 [DTC]1 62267U 24237A   26264.43153607  .00095876  00000+0  74072-3 0  99972 62267  43.0021 317.0810 0002163 260.9102  99.1521 15.70883019103831

JSON: /api/v1/satellites/62267 · /tle

For live sub-satellite position, see the globe view (requires WebGL).

§ Visibility from observer

Set your observer location to see the next 7 days of passes ≥ 10°. The values pass through the URL so the page stays shareable.

No JS? Fill the form by hand. The geolocation button needs JavaScript.